Time,TemperatureF,DewpointF,PressureIn,WindDirection,WindDirectionDegrees,WindSpeedMPH,WindSpeedGustMPH,Humidity,HourlyPrecipIn,Conditions,Clouds,dailyrainin,SoftwareType,DateUTC
2013-03-24 00:00:00,43.4,20.1,29.88,SSW,205,0.0,3.1,39,0.00,,SCT,0.00,VWS V14.01,2013-03-24 04:00:00,
2013-03-24 00:05:00,43.2,20.0,29.88,South,184,0.0,3.1,39,0.00,,SCT,0.00,VWS V14.01,2013-03-24 04:05:00,
2013-03-24 00:10:00,42.7,19.5,29.88,SSE,166,2.7,4.0,39,0.00,,SCT,0.00,VWS V14.01,2013-03-24 04:10:00,
2013-03-24 00:15:00,42.5,19.3,29.88,SSE,151,0.0,5.8,39,0.00,,SCT,0.00,VWS V14.01,2013-03-24 04:15:00,
2013-03-24 00:20:00,42.3,19.2,29.88,WSW,253,3.1,4.5,39,0.00,,SCT,0.00,VWS V14.01,2013-03-24 04:20:00,
2013-03-24 00:25:00,42.3,19.2,29.88,SSW,192,4.5,4.5,39,0.00,,SCT,0.00,VWS V14.01,2013-03-24 04:25:00,
2013-03-24 00:30:00,42.2,19.6,29.88,SW,214,2.7,5.4,40,0.00,,SCT,0.00,VWS V14.01,2013-03-24 04:30:00,
2013-03-24 00:35:00,42.2,19.6,29.88,South,175,4.9,5.4,40,0.00,,SCT,0.00,VWS V14.01,2013-03-24 04:35:00,
2013-03-24 00:40:00,42.0,19.4,29.88,WSW,241,5.4,6.7,40,0.00,,SCT,0.00,VWS V14.01,2013-03-24 04:40:00,
2013-03-24 00:45:00,42.2,20.2,29.91,SSW,205,3.1,4.9,41,0.00,,SCT,0.00,VWS V14.01,2013-03-24 04:45:00,
2013-03-24 00:50:00,42.2,20.2,29.91,WSW,253,0.0,2.7,41,0.00,,SCT,0.00,VWS V14.01,2013-03-24 04:50:00,
2013-03-24 00:55:00,41.8,-17.8,29.91,West,265,0.0,0.0,7,0.00,,SCT,0.00,VWS V14.01,2013-03-24 04:55:00,
2013-03-24 01:00:00,41.4,18.9,29.91,South,178,0.0,0.0,40,0.00,,SCT,0.00,VWS V14.01,2013-03-24 05:00:00,
2013-03-24 01:05:00,41.3,19.4,29.91,South,178,0.0,0.0,41,0.00,,SCT,0.00,VWS V14.01,2013-03-24 05:05:00,
2013-03-24 01:10:00,40.9,19.6,29.91,South,178,0.0,0.0,42,0.00,,SCT,0.00,VWS V14.01,2013-03-24 05:10:00,
2013-03-24 01:15:00,40.0,18.8,29.91,South,178,0.0,0.0,42,0.00,,SCT,0.00,VWS V14.01,2013-03-24 05:15:00,
2013-03-24 01:20:00,39.5,18.3,29.91,South,178,0.0,0.0,42,0.00,,SCT,0.00,VWS V14.01,2013-03-24 05:20:00,
2013-03-24 01:25:00,39.1,18.5,29.91,South,178,0.0,0.0,43,0.00,,SCT,0.00,VWS V14.01,2013-03-24 05:25:00,
2013-03-24 01:30:00,38.9,18.9,29.91,South,178,0.0,0.0,44,0.00,,SCT,0.00,VWS V14.01,2013-03-24 05:30:00,
2013-03-24 01:35:00,38.9,19.4,29.91,South,178,0.0,0.0,45,0.00,,SCT,0.00,VWS V14.01,2013-03-24 05:35:00,
2013-03-24 01:40:00,38.9,19.4,29.91,South,178,0.0,0.0,45,0.00,,SCT,0.00,VWS V14.01,2013-03-24 05:40:00,
2013-03-24 01:45:00,38.9,19.9,29.91,South,178,0.0,0.0,46,0.00,,SCT,0.00,VWS V14.01,2013-03-24 05:45:00,
2013-03-24 01:50:00,38.9,19.9,29.91,South,178,0.0,0.0,46,0.00,,SCT,0.00,VWS V14.01,2013-03-24 05:50:00,
2013-03-24 01:55:00,38.9,19.9,29.91,South,178,0.0,0.0,46,0.00,,SCT,0.00,VWS V14.01,2013-03-24 05:55:00,
2013-03-24 02:00:00,38.9,19.9,29.88,South,178,0.0,0.0,46,0.00,,SCT,0.00,VWS V14.01,2013-03-24 06:00:00,
2013-03-24 02:05:00,38.9,19.9,29.88,South,178,0.0,0.0,46,0.00,,SCT,0.00,VWS V14.01,2013-03-24 06:05:00,
2013-03-24 02:10:00,38.9,19.9,29.88,South,178,0.0,0.0,46,0.00,,SCT,0.00,VWS V14.01,2013-03-24 06:10:00,
2013-03-24 02:15:00,38.9,19.9,29.88,South,178,0.0,0.0,46,0.00,,SCT,0.00,VWS V14.01,2013-03-24 06:15:00,
2013-03-24 02:20:00,38.9,19.9,29.88,South,178,0.0,0.0,46,0.00,,SCT,0.00,VWS V14.01,2013-03-24 06:20:00,
2013-03-24 02:25:00,38.9,19.9,29.88,South,178,0.0,0.0,46,0.00,,SCT,0.00,VWS V14.01,2013-03-24 06:25:00,
2013-03-24 02:30:00,38.9,19.9,29.88,South,178,0.0,0.0,46,0.00,,SCT,0.00,VWS V14.01,2013-03-24 06:30:00,
2013-03-24 02:35:00,38.9,19.9,29.88,South,178,0.0,0.0,46,0.00,,SCT,0.00,VWS V14.01,2013-03-24 06:35:00,
2013-03-24 02:40:00,38.9,19.9,29.88,South,178,0.0,0.0,46,0.00,,SCT,0.00,VWS V14.01,2013-03-24 06:40:00,
2013-03-24 02:45:00,38.9,19.9,29.88,South,178,0.0,0.0,46,0.00,,SCT,0.00,VWS V14.01,2013-03-24 06:45:00,
2013-03-24 02:50:00,38.9,19.9,29.88,South,178,0.0,0.0,46,0.00,,SCT,0.00,VWS V14.01,2013-03-24 06:50:00,
2013-03-24 02:55:00,37.3,18.4,29.88,South,178,0.0,0.0,46,0.00,,SCT,0.00,VWS V14.01,2013-03-24 06:55:00,
2013-03-24 03:00:00,37.5,18.6,29.88,South,178,0.0,0.0,46,0.00,,SCT,0.00,VWS V14.01,2013-03-24 07:00:00,
2013-03-24 03:05:00,37.7,18.8,29.88,South,178,0.0,0.0,46,0.00,,SCT,0.00,VWS V14.01,2013-03-24 07:05:00,
2013-03-24 03:09:00,37.7,18.8,29.88,South,178,0.0,0.0,46,0.00,,SCT,0.00,VWS V14.01,2013-03-24 07:09:00,
2013-03-24 03:15:00,37.8,20.4,29.91,South,178,0.0,0.0,49,0.00,,SCT,0.00,VWS V14.01,2013-03-24 07:15:00,
2013-03-24 03:19:00,37.8,20.4,29.91,South,178,0.0,0.0,49,0.00,,SCT,0.00,VWS V14.01,2013-03-24 07:19:00,
2013-03-24 03:24:00,37.8,20.9,29.91,South,178,0.0,0.0,50,0.00,,SCT,0.00,VWS V14.01,2013-03-24 07:24:00,
2013-03-24 03:29:00,37.8,20.9,29.91,South,178,0.0,0.0,50,0.00,,SCT,0.00,VWS V14.01,2013-03-24 07:29:00,
2013-03-24 03:34:00,37.7,20.7,29.91,South,178,0.0,0.0,50,0.00,,SCT,0.00,VWS V14.01,2013-03-24 07:34:00,
2013-03-24 03:39:00,37.7,20.7,29.91,South,178,0.0,0.0,50,0.00,,SCT,0.00,VWS V14.01,2013-03-24 07:39:00,
2013-03-24 03:44:00,37.7,20.7,29.91,South,178,0.0,0.0,50,0.00,,SCT,0.00,VWS V14.01,2013-03-24 07:44:00,
2013-03-24 03:49:00,37.5,20.5,29.91,South,178,0.0,0.0,50,0.00,,SCT,0.00,VWS V14.01,2013-03-24 07:49:00,
2013-03-24 03:54:00,37.7,20.7,29.91,South,178,0.0,0.0,50,0.00,,SCT,0.00,VWS V14.01,2013-03-24 07:54:00,
2013-03-24 03:59:00,37.7,20.7,29.88,South,178,3.1,3.1,50,0.00,,SCT,0.00,VWS V14.01,2013-03-24 07:59:00,
2013-03-24 04:04:00,37.8,21.4,29.88,South,178,0.0,0.0,51,0.00,,SCT,0.00,VWS V14.01,2013-03-24 08:04:00,
2013-03-24 04:09:00,37.8,21.4,29.88,NE,37,4.5,4.9,51,0.00,,SCT,0.00,VWS V14.01,2013-03-24 08:09:00,
2013-03-24 04:14:00,37.8,21.8,29.88,NE,38,3.6,4.0,52,0.00,,SCT,0.00,VWS V14.01,2013-03-24 08:14:00,
2013-03-24 04:19:00,37.7,21.2,29.88,NE,38,3.6,4.0,51,0.00,,SCT,0.00,VWS V14.01,2013-03-24 08:19:00,
2013-03-24 04:24:00,37.5,21.5,29.88,NE,38,4.0,4.0,52,0.00,,SCT,0.00,VWS V14.01,2013-03-24 08:24:00,
2013-03-24 04:29:00,37.5,21.5,29.88,NE,38,0.0,0.0,52,0.00,,SCT,0.00,VWS V14.01,2013-03-24 08:29:00,
2013-03-24 04:34:00,37.7,21.6,29.88,NE,38,4.0,4.0,52,0.00,,SCT,0.00,VWS V14.01,2013-03-24 08:34:00,
2013-03-24 04:39:00,37.7,21.6,29.88,NE,38,3.6,3.6,52,0.00,,SCT,0.00,VWS V14.01,2013-03-24 08:39:00,
2013-03-24 04:44:00,37.8,21.8,29.88,NE,38,3.1,4.0,52,0.00,,SCT,0.00,VWS V14.01,2013-03-24 08:44:00,
2013-03-24 04:49:00,37.8,21.8,29.88,NE,38,0.0,0.0,52,0.00,,SCT,0.00,VWS V14.01,2013-03-24 08:49:00,
2013-03-24 04:54:00,37.8,21.8,29.88,NE,38,0.0,0.0,52,0.00,,SCT,0.00,VWS V14.01,2013-03-24 08:54:00,
2013-03-24 04:59:00,37.8,21.8,29.88,NE,38,0.0,0.0,52,0.00,,SCT,0.00,VWS V14.01,2013-03-24 08:59:00,
2013-03-24 05:04:00,37.8,21.8,29.88,NE,38,3.1,3.1,52,0.00,,SCT,0.00,VWS V14.01,2013-03-24 09:04:00,
2013-03-24 05:09:00,37.8,21.8,29.88,NE,38,3.1,3.6,52,0.00,,SCT,0.00,VWS V14.01,2013-03-24 09:09:00,
2013-03-24 05:14:00,37.8,21.4,29.88,NE,38,3.6,4.5,51,0.00,,SCT,0.00,VWS V14.01,2013-03-24 09:14:00,
2013-03-24 05:19:00,37.8,21.4,29.88,NE,38,4.0,4.9,51,0.00,,SCT,0.00,VWS V14.01,2013-03-24 09:19:00,
2013-03-24 05:24:00,37.8,20.9,29.88,NE,38,4.0,4.9,50,0.00,,SCT,0.00,VWS V14.01,2013-03-24 09:24:00,
2013-03-24 05:29:00,37.8,20.4,29.88,NE,39,4.0,4.0,49,0.00,,SCT,0.00,VWS V14.01,2013-03-24 09:29:00,
2013-03-24 05:34:00,37.8,20.4,29.88,ENE,60,3.1,3.6,49,0.00,,SCT,0.00,VWS V14.01,2013-03-24 09:34:00,
2013-03-24 05:39:00,37.8,19.9,29.88,NE,49,4.5,4.5,48,0.00,,SCT,0.00,VWS V14.01,2013-03-24 09:39:00,
2013-03-24 05:44:00,37.8,19.9,29.88,NE,53,3.1,3.6,48,0.00,,SCT,0.00,VWS V14.01,2013-03-24 09:44:00,
2013-03-24 05:49:00,37.8,19.9,29.88,NE,53,3.6,4.0,48,0.00,,SCT,0.00,VWS V14.01,2013-03-24 09:49:00,
2013-03-24 05:54:00,37.8,20.4,29.88,NE,39,2.7,4.5,49,0.00,,SCT,0.00,VWS V14.01,2013-03-24 09:54:00,
2013-03-24 05:59:00,37.8,20.9,29.88,NE,39,2.7,4.0,50,0.00,,SCT,0.00,VWS V14.01,2013-03-24 09:59:00,
2013-03-24 06:04:00,37.8,20.9,29.88,NE,39,0.0,0.0,50,0.00,,SCT,0.00,VWS V14.01,2013-03-24 10:04:00,
2013-03-24 06:09:00,37.8,20.9,29.88,NE,39,0.0,0.0,50,0.00,,SCT,0.00,VWS V14.01,2013-03-24 10:09:00,
2013-03-24 06:14:00,37.8,20.9,29.88,NE,39,0.0,0.0,50,0.00,,SCT,0.00,VWS V14.01,2013-03-24 10:14:00,
2013-03-24 06:19:00,37.8,21.4,29.88,NE,39,0.0,0.0,51,0.00,,SCT,0.00,VWS V14.01,2013-03-24 10:19:00,
2013-03-24 06:24:00,37.8,21.8,29.88,NE,39,3.6,4.0,52,0.00,,SCT,0.00,VWS V14.01,2013-03-24 10:24:00,
2013-03-24 06:29:00,37.8,22.3,29.88,NE,39,3.6,4.5,53,0.00,,SCT,0.00,VWS V14.01,2013-03-24 10:29:00,
2013-03-24 06:34:00,37.8,22.3,29.88,NE,42,0.0,4.5,53,0.00,,SCT,0.00,VWS V14.01,2013-03-24 10:34:00,
2013-03-24 06:39:00,37.8,22.7,29.88,ENE,57,3.6,3.6,54,0.00,,SCT,0.00,VWS V14.01,2013-03-24 10:39:00,
2013-03-24 06:44:00,37.8,23.1,29.88,ENE,59,4.5,5.8,55,0.00,,SCT,0.00,VWS V14.01,2013-03-24 10:44:00,
2013-03-24 06:49:00,37.8,22.7,29.88,NE,39,5.8,5.8,54,0.00,,SCT,0.00,VWS V14.01,2013-03-24 10:49:00,
2013-03-24 06:54:00,37.8,22.3,29.88,NE,37,4.9,5.8,53,0.00,,SCT,0.00,VWS V14.01,2013-03-24 10:54:00,
2013-03-24 06:59:00,37.8,22.3,29.88,NE,47,4.0,4.0,53,0.00,,SCT,0.00,VWS V14.01,2013-03-24 10:59:00,
2013-03-24 07:04:00,37.8,22.3,29.88,NE,48,4.5,4.5,53,0.00,,SCT,0.00,VWS V14.01,2013-03-24 11:04:00,
2013-03-24 07:09:00,37.8,22.3,29.88,NE,45,5.4,5.4,53,0.00,,SCT,0.00,VWS V14.01,2013-03-24 11:09:00,
2013-03-24 07:14:00,37.8,22.3,29.88,NE,44,4.0,4.0,53,0.00,,SCT,0.00,VWS V14.01,2013-03-24 11:14:00,
2013-03-24 07:19:00,37.8,22.7,29.88,NE,47,4.9,4.9,54,0.00,,SCT,0.00,VWS V14.01,2013-03-24 11:19:00,
2013-03-24 07:24:00,37.8,23.1,29.88,NE,38,5.8,5.8,55,0.00,,SCT,0.00,VWS V14.01,2013-03-24 11:24:00,
2013-03-24 07:29:00,37.8,23.6,29.88,NNE,29,4.9,5.4,56,0.00,,SCT,0.00,VWS V14.01,2013-03-24 11:29:00,
2013-03-24 07:34:00,37.8,23.6,29.88,NE,41,4.0,4.0,56,0.00,,SCT,0.00,VWS V14.01,2013-03-24 11:34:00,
2013-03-24 07:39:00,37.8,23.6,29.88,NE,38,4.0,5.4,56,0.00,,SCT,0.00,VWS V14.01,2013-03-24 11:39:00,
2013-03-24 07:44:00,37.8,24.0,29.88,NNE,15,6.3,6.3,57,0.00,,SCT,0.00,VWS V14.01,2013-03-24 11:44:00,
2013-03-24 07:49:00,37.8,24.4,29.88,NNE,27,4.5,5.4,58,0.00,,SCT,0.00,VWS V14.01,2013-03-24 11:49:00,
2013-03-24 07:54:00,37.8,24.8,29.88,NE,41,5.4,5.4,59,0.00,,SCT,0.00,VWS V14.01,2013-03-24 11:54:00,
2013-03-24 07:59:00,37.8,25.2,29.88,NE,34,5.4,6.7,60,0.00,,SCT,0.00,VWS V14.01,2013-03-24 11:59:00,
2013-03-24 08:04:00,37.8,25.2,29.88,NE,52,5.4,6.9,60,0.00,,SCT,0.00,VWS V14.01,2013-03-24 12:04:00,
2013-03-24 08:09:00,37.8,25.2,29.88,NE,41,3.1,3.6,60,0.00,,SCT,0.00,VWS V14.01,2013-03-24 12:09:00,
2013-03-24 08:14:00,36.4,24.2,29.82,ENE,64,5.4,6.3,61,0.00,,SCT,0.00,VWS V14.01,2013-03-24 12:14:00,
2013-03-24 08:19:00,36.2,24.1,29.82,NE,40,7.4,7.4,61,0.00,,SCT,0.00,VWS V14.01,2013-03-24 12:19:00,
2013-03-24 08:24:00,36.0,24.7,29.82,NE,48,6.3,7.4,63,0.00,,OVC,0.00,VWS V14.01,2013-03-24 12:24:00,
2013-03-24 08:29:00,35.9,24.9,29.79,ENE,59,4.9,6.7,64,0.00,,OVC,0.00,VWS V14.01,2013-03-24 12:29:00,
2013-03-24 08:34:00,35.7,24.7,29.79,NNE,30,5.4,5.8,64,0.00,,OVC,0.00,VWS V14.01,2013-03-24 12:34:00,
2013-03-24 08:39:00,35.5,25.3,29.79,NE,41,7.4,9.2,66,0.00,,OVC,0.00,VWS V14.01,2013-03-24 12:39:00,
2013-03-24 08:44:00,35.3,25.5,29.79,NE,39,7.4,10.1,67,0.00,,OVC,0.00,VWS V14.01,2013-03-24 12:44:00,
2013-03-24 08:49:00,35.3,25.8,29.79,NNE,30,5.8,5.8,68,0.00,,OVC,0.00,VWS V14.01,2013-03-24 12:49:00,
2013-03-24 08:54:00,35.1,26.0,29.79,NE,35,6.3,6.3,69,0.00,,OVC,0.00,VWS V14.01,2013-03-24 12:54:00,
2013-03-24 08:59:00,35.1,26.0,29.79,NE,39,4.5,6.3,69,0.00,,OVC,0.00,VWS V14.01,2013-03-24 12:59:00,
2013-03-24 09:04:00,35.1,26.4,29.79,NE,36,4.0,4.0,70,0.00,,OVC,0.00,VWS V14.01,2013-03-24 13:04:00,
2013-03-24 09:09:00,35.0,26.2,29.79,NE,40,5.4,5.8,70,0.00,,OVC,0.00,VWS V14.01,2013-03-24 13:09:00,
2013-03-24 09:14:00,34.8,26.0,29.79,NE,53,7.4,7.4,70,0.04,,OVC,0.04,VWS V14.01,2013-03-24 13:14:00,
2013-03-24 09:19:00,34.6,26.2,29.79,NE,54,2.7,5.4,71,0.04,,OVC,0.04,VWS V14.01,2013-03-24 13:19:00,
2013-03-24 09:24:00,34.4,26.0,29.79,NE,43,2.7,2.7,71,0.04,,OVC,0.04,VWS V14.01,2013-03-24 13:24:00,
2013-03-24 09:29:00,34.1,25.7,29.82,NNE,32,2.7,4.0,71,0.04,,OVC,0.04,VWS V14.01,2013-03-24 13:29:00,
2013-03-24 09:34:00,33.9,25.5,29.82,NE,47,0.0,0.0,71,0.04,,OVC,0.04,VWS V14.01,2013-03-24 13:34:00,
2013-03-24 09:39:00,33.7,25.0,29.82,NE,54,0.0,0.0,70,0.04,,OVC,0.04,VWS V14.01,2013-03-24 13:39:00,
2013-03-24 09:44:00,33.7,25.3,29.85,NE,54,0.0,0.0,71,0.08,,OVC,0.08,VWS V14.01,2013-03-24 13:44:00,
2013-03-24 09:49:00,33.7,25.3,29.85,NE,46,0.0,0.0,71,0.08,,OVC,0.08,VWS V14.01,2013-03-24 13:49:00,
2013-03-24 09:54:00,33.5,25.1,29.85,ENE,71,3.1,3.6,71,0.08,,OVC,0.08,VWS V14.01,2013-03-24 13:54:00,
2013-03-24 09:59:00,33.5,25.1,29.82,NE,45,2.7,3.1,71,0.08,,OVC,0.08,VWS V14.01,2013-03-24 13:59:00,
2013-03-24 10:04:00,33.3,25.3,29.82,ENE,57,0.0,3.6,72,0.08,,OVC,0.08,VWS V14.01,2013-03-24 14:04:00,
2013-03-24 10:09:00,33.3,25.3,29.82,ENE,75,3.6,3.6,72,0.08,,OVC,0.08,VWS V14.01,2013-03-24 14:09:00,
2013-03-24 10:14:00,33.3,25.6,29.79,ENE,60,6.9,6.9,73,0.04,,OVC,0.08,VWS V14.01,2013-03-24 14:14:00,
2013-03-24 10:19:00,33.5,26.1,29.79,ENE,76,8.3,8.7,74,0.04,,OVC,0.08,VWS V14.01,2013-03-24 14:19:00,
2013-03-24 10:24:00,34.1,27.3,29.79,ENE,73,4.9,5.8,76,0.08,,OVC,0.12,VWS V14.01,2013-03-24 14:24:00,
2013-03-24 10:29:00,34.4,28.0,29.79,ENE,64,6.3,6.3,77,0.08,,OVC,0.12,VWS V14.01,2013-03-24 14:29:00,
2013-03-24 10:34:00,34.6,28.5,29.79,ENE,57,4.0,5.4,78,0.08,,OVC,0.12,VWS V14.01,2013-03-24 14:34:00,
2013-03-24 10:39:00,34.8,28.6,29.79,ENE,70,8.3,9.2,78,0.08,,OVC,0.12,VWS V14.01,2013-03-24 14:39:00,
2013-03-24 10:44:00,35.1,29.0,29.79,NE,41,6.9,6.9,78,0.04,,OVC,0.12,VWS V14.01,2013-03-24 14:44:00,
2013-03-24 10:49:00,35.3,29.2,29.79,NNE,22,6.3,6.3,78,0.04,,OVC,0.12,VWS V14.01,2013-03-24 14:49:00,
2013-03-24 10:54:00,35.9,29.7,29.79,NE,47,6.9,8.3,78,0.08,,OVC,0.16,VWS V14.01,2013-03-24 14:54:00,
2013-03-24 10:59:00,36.4,30.2,29.76,NNE,24,6.9,9.6,78,0.08,,OVC,0.16,VWS V14.01,2013-03-24 14:59:00,
2013-03-24 11:04:00,36.6,30.1,29.76,ENE,62,4.5,6.3,77,0.08,,OVC,0.16,VWS V14.01,2013-03-24 15:04:00,
2013-03-24 11:09:00,36.4,29.2,29.76,NNE,21,6.3,6.7,75,0.08,,OVC,0.16,VWS V14.01,2013-03-24 15:09:00,
2013-03-24 11:14:00,36.0,28.6,29.76,ENE,67,5.4,5.4,74,0.08,,OVC,0.16,VWS V14.01,2013-03-24 15:14:00,
2013-03-24 11:19:00,36.0,28.6,29.76,ENE,67,5.4,5.4,74,0.08,,OVC,0.16,VWS V14.01,2013-03-24 15:19:00,
2013-03-24 11:24:00,36.2,29.1,29.76,ENE,67,5.4,5.4,75,0.04,,OVC,0.16,VWS V14.01,2013-03-24 15:24:00,
2013-03-24 11:29:00,36.2,29.1,29.76,ENE,67,5.4,5.4,75,0.04,,OVC,0.16,VWS V14.01,2013-03-24 15:29:00,
2013-03-24 11:34:00,36.4,29.6,29.76,ENE,67,5.4,5.4,76,0.08,,OVC,0.20,VWS V14.01,2013-03-24 15:34:00,
2013-03-24 11:39:00,36.4,29.2,29.76,ENE,67,5.4,5.4,75,0.08,,OVC,0.20,VWS V14.01,2013-03-24 15:39:00,
2013-03-24 11:44:00,36.2,29.1,29.76,ENE,67,5.4,5.4,75,0.08,,OVC,0.20,VWS V14.01,2013-03-24 15:44:00,
2013-03-24 11:49:00,36.2,29.4,29.76,NE,52,7.8,9.2,76,0.08,,OVC,0.20,VWS V14.01,2013-03-24 15:49:00,
2013-03-24 11:54:00,36.6,29.7,29.76,NE,38,5.4,6.7,76,0.04,,OVC,0.20,VWS V14.01,2013-03-24 15:54:00,
2013-03-24 11:59:00,37.1,30.6,29.76,North,2,5.4,7.8,77,0.04,,OVC,0.00,VWS V14.01,2013-03-24 15:59:00,
2013-03-24 12:04:00,37.5,30.9,29.76,NE,49,4.9,4.9,77,0.04,,OVC,0.20,VWS V14.01,2013-03-24 16:04:00,
2013-03-24 12:08:00,37.5,30.9,29.76,NE,48,5.4,6.3,77,0.04,,OVC,0.20,VWS V14.01,2013-03-24 16:08:00,
2013-03-24 12:13:00,37.3,30.4,29.76,NE,39,5.4,5.4,76,0.04,,OVC,0.20,VWS V14.01,2013-03-24 16:13:00,
2013-03-24 12:18:00,37.5,30.6,29.76,ENE,58,6.9,7.8,76,0.04,,OVC,0.20,VWS V14.01,2013-03-24 16:18:00,
2013-03-24 12:23:00,37.3,30.4,29.76,ENE,69,3.1,7.8,76,0.04,,OVC,0.20,VWS V14.01,2013-03-24 16:23:00,
2013-03-24 12:28:00,37.5,30.3,29.76,North,356,5.4,9.2,75,0.04,,OVC,0.20,VWS V14.01,2013-03-24 16:28:00,
2013-03-24 12:33:00,37.5,30.3,29.76,NE,45,11.6,14.3,75,0.00,,OVC,0.20,VWS V14.01,2013-03-24 16:33:00,
2013-03-24 12:38:00,37.3,29.8,29.76,North,6,4.9,4.9,74,0.00,,OVC,0.20,VWS V14.01,2013-03-24 16:38:00,
2013-03-24 12:43:00,37.1,29.6,29.76,ESE,114,4.5,4.5,74,0.00,,OVC,0.20,VWS V14.01,2013-03-24 16:43:00,
2013-03-24 12:48:00,37.1,29.9,29.76,NNE,32,5.4,8.3,75,0.00,,OVC,0.20,VWS V14.01,2013-03-24 16:48:00,
2013-03-24 12:53:00,37.1,29.9,29.76,NNE,21,8.7,13.0,75,0.04,,OVC,0.24,VWS V14.01,2013-03-24 16:53:00,
2013-03-24 12:58:00,37.1,30.3,29.76,East,93,5.8,10.5,76,0.04,,OVC,0.24,VWS V14.01,2013-03-24 16:58:00,
2013-03-24 13:03:00,37.1,30.3,29.70,East,83,4.9,7.8,76,0.04,,OVC,0.24,VWS V14.01,2013-03-24 17:03:00,
2013-03-24 13:08:00,37.1,30.6,29.70,NE,51,6.7,9.2,77,0.04,,OVC,0.24,VWS V14.01,2013-03-24 17:08:00,
2013-03-24 13:13:00,37.1,30.6,29.70,NE,39,5.8,8.7,77,0.04,,OVC,0.24,VWS V14.01,2013-03-24 17:13:00,
2013-03-24 13:18:00,37.1,30.6,29.70,NE,38,11.0,11.6,77,0.04,,OVC,0.24,VWS V14.01,2013-03-24 17:18:00,
2013-03-24 13:23:00,37.1,30.6,29.70,ENE,71,4.0,6.3,77,0.04,,OVC,0.24,VWS V14.01,2013-03-24 17:23:00,
2013-03-24 13:28:00,37.1,30.6,29.70,NE,44,6.7,6.7,77,0.04,,OVC,0.24,VWS V14.01,2013-03-24 17:28:00,
2013-03-24 13:33:00,36.0,29.5,29.70,NNE,32,6.9,10.5,77,0.04,,OVC,0.24,VWS V14.01,2013-03-24 17:33:00,
2013-03-24 13:38:00,36.2,29.7,29.70,NNE,25,8.3,10.1,77,0.04,,OVC,0.24,VWS V14.01,2013-03-24 17:38:00,
2013-03-24 13:43:00,36.0,29.5,29.67,ENE,67,7.4,10.5,77,0.04,,OVC,0.24,VWS V14.01,2013-03-24 17:43:00,
2013-03-24 13:48:00,36.0,29.5,29.67,NE,51,6.9,9.2,77,0.04,,OVC,0.24,VWS V14.01,2013-03-24 17:48:00,
2013-03-24 13:53:00,36.0,30.8,29.67,NE,42,8.7,9.2,81,0.04,,OVC,0.28,VWS V14.01,2013-03-24 17:53:00,
2013-03-24 13:58:00,35.9,30.6,29.67,NE,42,8.7,8.7,81,0.04,,OVC,0.00,VWS V14.01,2013-03-24 17:58:00,
2013-03-24 14:03:00,35.7,30.4,29.67,NE,42,8.7,8.7,81,0.04,,OVC,0.28,VWS V14.01,2013-03-24 18:03:00,
2013-03-24 14:08:00,35.5,30.3,29.67,NNE,25,6.9,8.3,81,0.04,,OVC,0.28,VWS V14.01,2013-03-24 18:08:00,
2013-03-24 14:13:00,35.1,29.9,29.67,NE,48,7.8,7.8,81,0.04,,OVC,0.28,VWS V14.01,2013-03-24 18:13:00,
2013-03-24 14:18:00,35.0,30.0,29.67,NE,48,7.8,7.8,82,0.04,,OVC,0.28,VWS V14.01,2013-03-24 18:18:00,
2013-03-24 14:23:00,34.8,29.9,29.67,NE,48,7.8,7.8,82,0.08,,OVC,0.31,VWS V14.01,2013-03-24 18:23:00,
2013-03-24 14:28:00,35.0,30.3,29.67,NE,48,7.8,7.8,83,0.08,,OVC,0.31,VWS V14.01,2013-03-24 18:28:00,
2013-03-24 14:34:00,35.0,30.3,29.67,NE,48,7.8,7.8,83,0.08,,OVC,0.31,VWS V14.01,2013-03-24 18:34:00,
2013-03-24 14:39:00,35.1,30.8,29.67,NE,43,5.8,9.2,84,0.08,,OVC,0.31,VWS V14.01,2013-03-24 18:39:00,
2013-03-24 14:43:00,35.1,30.8,29.65,North,4,3.1,7.8,84,0.08,,OVC,0.31,VWS V14.01,2013-03-24 18:43:00,
2013-03-24 14:48:00,35.0,30.6,29.65,North,4,5.4,5.4,84,0.08,,OVC,0.31,VWS V14.01,2013-03-24 18:48:00,
2013-03-24 14:53:00,35.0,30.6,29.65,NE,48,4.0,11.2,84,0.08,,OVC,0.35,VWS V14.01,2013-03-24 18:53:00,
2013-03-24 14:58:00,35.0,30.6,29.65,NE,39,10.5,14.8,84,0.08,,OVC,0.35,VWS V14.01,2013-03-24 18:58:00,
2013-03-24 15:03:00,35.0,30.6,29.65,NE,56,7.4,10.1,84,0.08,,OVC,0.35,VWS V14.01,2013-03-24 19:03:00,
2013-03-24 15:08:00,34.8,30.5,29.65,ENE,60,8.7,9.2,84,0.08,,OVC,0.35,VWS V14.01,2013-03-24 19:08:00,
2013-03-24 15:13:00,34.6,30.3,29.62,ENE,63,6.9,13.0,84,0.08,,OVC,0.35,VWS V14.01,2013-03-24 19:13:00,
2013-03-24 15:18:00,34.4,30.1,29.62,NNE,31,8.3,13.4,84,0.12,,OVC,0.39,VWS V14.01,2013-03-24 19:18:00,
2013-03-24 15:23:00,34.4,30.4,29.62,ENE,65,6.9,10.1,85,0.08,,OVC,0.39,VWS V14.01,2013-03-24 19:23:00,
2013-03-24 15:28:00,34.4,30.4,29.65,NE,37,7.4,9.2,85,0.08,,OVC,0.39,VWS V14.01,2013-03-24 19:28:00,
2013-03-24 15:33:00,34.2,30.2,29.65,NE,42,5.8,7.8,85,0.08,,OVC,0.39,VWS V14.01,2013-03-24 19:33:00,
2013-03-24 15:38:00,34.4,30.4,29.65,ENE,57,4.9,8.3,85,0.08,,OVC,0.39,VWS V14.01,2013-03-24 19:38:00,
2013-03-24 15:43:00,34.4,30.4,29.65,NE,49,5.8,6.3,85,0.12,,OVC,0.43,VWS V14.01,2013-03-24 19:43:00,
2013-03-24 15:48:00,34.4,30.4,29.65,NNE,16,0.0,7.4,85,0.12,,OVC,0.43,VWS V14.01,2013-03-24 19:48:00,
2013-03-24 15:53:00,34.4,30.4,29.65,North,2,0.0,4.5,85,0.08,,OVC,0.43,VWS V14.01,2013-03-24 19:53:00,
2013-03-24 15:58:00,34.4,30.4,29.67,NE,46,0.0,2.7,85,0.12,,OVC,0.47,VWS V14.01,2013-03-24 19:58:00,
2013-03-24 16:03:00,34.4,30.4,29.67,NNE,16,5.8,5.8,85,0.12,,OVC,0.47,VWS V14.01,2013-03-24 20:03:00,
2013-03-24 16:08:00,34.4,30.4,29.67,NNE,29,4.5,5.4,85,0.12,,OVC,0.47,VWS V14.01,2013-03-24 20:08:00,
2013-03-24 16:13:00,34.4,30.4,29.67,NE,39,3.1,7.8,85,0.12,,OVC,0.47,VWS V14.01,2013-03-24 20:13:00,
2013-03-24 16:18:00,34.4,30.4,29.67,NE,47,6.3,6.3,85,0.08,,OVC,0.47,VWS V14.01,2013-03-24 20:18:00,
2013-03-24 16:23:00,34.6,30.9,29.67,NNE,22,5.4,8.3,86,0.12,,OVC,0.51,VWS V14.01,2013-03-24 20:23:00,
2013-03-24 16:28:00,34.8,31.0,29.65,East,100,4.9,6.3,86,0.12,,OVC,0.51,VWS V14.01,2013-03-24 20:28:00,
2013-03-24 16:33:00,35.3,31.6,29.65,ENE,75,6.9,9.6,86,0.12,,OVC,0.51,VWS V14.01,2013-03-24 20:33:00,
2013-03-24 16:38:00,35.5,31.5,29.65,NNE,32,6.9,9.6,85,0.12,,OVC,0.51,VWS V14.01,2013-03-24 20:38:00,
2013-03-24 16:43:00,35.7,31.6,29.62,ENE,78,10.1,10.1,85,0.08,,OVC,0.51,VWS V14.01,2013-03-24 20:43:00,
2013-03-24 16:48:00,35.3,31.0,29.62,East,92,5.4,12.5,84,0.08,,OVC,0.51,VWS V14.01,2013-03-24 20:48:00,
2013-03-24 16:53:00,35.7,31.3,29.62,ESE,111,3.6,7.4,84,0.08,,OVC,0.51,VWS V14.01,2013-03-24 20:53:00,
2013-03-24 16:58:00,36.0,31.7,29.62,NE,44,7.8,10.1,84,0.08,,OVC,0.51,VWS V14.01,2013-03-24 20:58:00,
2013-03-24 17:03:00,36.2,31.9,29.62,NE,51,5.8,8.3,84,0.04,,OVC,0.51,VWS V14.01,2013-03-24 21:03:00,
2013-03-24 17:08:00,36.8,32.4,29.62,ENE,60,3.6,4.9,84,0.04,,OVC,0.51,VWS V14.01,2013-03-24 21:08:00,
2013-03-24 17:13:00,36.9,32.3,29.59,NNW,333,4.0,7.4,83,0.04,,OVC,0.51,VWS V14.01,2013-03-24 21:13:00,
2013-03-24 17:18:00,37.1,32.4,29.59,East,92,6.7,11.6,83,0.04,,OVC,0.51,VWS V14.01,2013-03-24 21:18:00,
2013-03-24 17:23:00,36.9,31.7,29.59,ESE,122,4.9,6.7,81,0.00,,OVC,0.51,VWS V14.01,2013-03-24 21:23:00,
2013-03-24 17:28:00,37.1,31.8,29.59,NNE,25,7.4,7.4,81,0.00,,OVC,0.51,VWS V14.01,2013-03-24 21:28:00,
2013-03-24 17:33:00,36.9,31.4,29.59,East,86,4.9,7.8,80,0.00,,OVC,0.51,VWS V14.01,2013-03-24 21:33:00,
2013-03-24 17:38:00,36.9,31.0,29.59,East,89,4.5,6.9,79,0.00,,OVC,0.51,VWS V14.01,2013-03-24 21:38:00,
2013-03-24 17:43:00,36.9,30.7,29.59,NE,45,3.6,5.4,78,0.00,,OVC,0.51,VWS V14.01,2013-03-24 21:43:00,
2013-03-24 17:48:00,36.9,30.4,29.59,ENE,64,6.7,9.2,77,0.00,,OVC,0.51,VWS V14.01,2013-03-24 21:48:00,
2013-03-24 17:53:00,36.9,30.1,29.59,NNE,22,9.2,9.2,76,0.00,,OVC,0.51,VWS V14.01,2013-03-24 21:53:00,
2013-03-24 17:58:00,36.8,29.3,29.59,NNE,23,11.2,11.2,74,0.00,,OVC,0.51,VWS V14.01,2013-03-24 21:58:00,
2013-03-24 18:03:00,36.6,29.1,29.59,NE,49,3.1,6.7,74,0.00,,OVC,0.51,VWS V14.01,2013-03-24 22:03:00,
2013-03-24 18:08:00,36.6,29.1,29.59,NE,41,9.6,9.6,74,0.00,,OVC,0.51,VWS V14.01,2013-03-24 22:08:00,
2013-03-24 18:13:00,36.6,28.8,29.59,ENE,65,6.7,6.7,73,0.00,,OVC,0.51,VWS V14.01,2013-03-24 22:13:00,
2013-03-24 18:18:00,36.4,28.6,29.59,NE,51,6.3,8.3,73,0.00,,OVC,0.51,VWS V14.01,2013-03-24 22:18:00,
2013-03-24 18:23:00,36.4,28.6,29.59,ENE,62,10.5,11.0,73,0.00,,OVC,0.51,VWS V14.01,2013-03-24 22:23:00,
2013-03-24 18:28:00,36.0,27.9,29.56,ENE,78,6.9,12.1,72,0.00,,OVC,0.51,VWS V14.01,2013-03-24 22:28:00,
2013-03-24 18:33:00,35.9,27.7,29.56,NNE,30,4.5,6.7,72,0.00,,OVC,0.51,VWS V14.01,2013-03-24 22:33:00,
2013-03-24 18:38:00,35.7,27.6,29.56,NE,40,6.7,6.9,72,0.00,,OVC,0.51,VWS V14.01,2013-03-24 22:38:00,
2013-03-24 18:43:00,35.7,27.9,29.59,NNE,21,5.8,6.9,73,0.00,,OVC,0.51,VWS V14.01,2013-03-24 22:43:00,
2013-03-24 18:48:00,35.7,27.9,29.59,ENE,62,3.6,6.7,73,0.00,,OVC,0.51,VWS V14.01,2013-03-24 22:48:00,
2013-03-24 18:53:00,35.5,28.0,29.59,ENE,78,4.5,6.3,74,0.00,,OVC,0.51,VWS V14.01,2013-03-24 22:53:00,
2013-03-24 18:58:00,35.5,28.0,29.59,ENE,59,3.6,5.4,74,0.00,,OVC,0.51,VWS V14.01,2013-03-24 22:58:00,
2013-03-24 19:03:00,35.3,28.2,29.59,ENE,70,6.9,7.8,75,0.00,,OVC,0.51,VWS V14.01,2013-03-24 23:03:00,
2013-03-24 19:08:00,35.3,28.2,29.59,East,89,4.5,7.4,75,0.00,,OVC,0.51,VWS V14.01,2013-03-24 23:08:00,
2013-03-24 19:13:00,35.1,28.4,29.59,ENE,75,6.7,6.7,76,0.00,,OVC,0.51,VWS V14.01,2013-03-24 23:13:00,
2013-03-24 19:18:00,35.1,28.4,29.59,NE,54,6.3,6.9,76,0.00,,OVC,0.51,VWS V14.01,2013-03-24 23:18:00,
2013-03-24 19:23:00,35.1,28.7,29.59,ENE,66,6.9,6.9,77,0.00,,OVC,0.51,VWS V14.01,2013-03-24 23:23:00,
2013-03-24 19:28:00,35.0,28.5,29.59,NNE,17,5.4,5.4,77,0.00,,OVC,0.51,VWS V14.01,2013-03-24 23:28:00,
2013-03-24 19:33:00,35.0,28.8,29.59,NE,48,5.4,7.4,78,0.00,,OVC,0.51,VWS V14.01,2013-03-24 23:33:00,
2013-03-24 19:38:00,34.8,28.6,29.59,East,82,3.1,6.3,78,0.00,,OVC,0.51,VWS V14.01,2013-03-24 23:38:00,
2013-03-24 19:43:00,34.8,28.6,29.62,NE,44,5.4,6.7,78,0.00,,OVC,0.51,VWS V14.01,2013-03-24 23:43:00,
2013-03-24 19:48:00,34.8,28.6,29.62,NE,42,5.4,6.3,78,0.00,,OVC,0.51,VWS V14.01,2013-03-24 23:48:00,
2013-03-24 19:53:00,34.6,28.8,29.62,NE,45,5.4,5.8,79,0.00,,OVC,0.51,VWS V14.01,2013-03-24 23:53:00,
2013-03-24 19:58:00,34.6,28.8,29.62,NE,43,4.0,4.5,79,0.00,,OVC,0.51,VWS V14.01,2013-03-24 23:58:00,
2013-03-24 20:03:00,34.4,28.6,29.62,North,7,4.5,6.9,79,0.00,,OVC,0.51,VWS V14.01,2013-03-25 00:03:00,
2013-03-24 20:08:00,34.2,28.4,29.62,NE,46,6.7,6.7,79,0.00,,OVC,0.51,VWS V14.01,2013-03-25 00:08:00,
2013-03-24 20:13:00,34.1,28.5,29.62,NE,37,5.8,6.3,80,0.00,,OVC,0.51,VWS V14.01,2013-03-25 00:13:00,
2013-03-24 20:18:00,33.9,28.4,29.62,NE,50,0.0,0.0,80,0.00,,OVC,0.51,VWS V14.01,2013-03-25 00:18:00,
2013-03-24 20:23:00,33.9,28.4,29.62,ENE,60,4.0,4.0,80,0.00,,OVC,0.51,VWS V14.01,2013-03-25 00:23:00,
2013-03-24 20:28:00,33.9,28.4,29.62,NE,46,3.6,4.9,80,0.00,,OVC,0.51,VWS V14.01,2013-03-25 00:28:00,
2013-03-24 20:33:00,33.7,28.2,29.62,NE,41,4.5,6.3,80,0.00,,OVC,0.51,VWS V14.01,2013-03-25 00:33:00,
2013-03-24 20:38:00,33.5,28.0,29.62,NE,44,0.0,0.0,80,0.00,,OVC,0.51,VWS V14.01,2013-03-25 00:38:00,
2013-03-24 20:43:00,33.7,28.2,29.65,NE,41,4.0,4.0,80,0.00,,OVC,0.51,VWS V14.01,2013-03-25 00:43:00,
2013-03-24 20:48:00,33.7,28.2,29.65,NE,41,4.0,4.0,80,0.00,,OVC,0.51,VWS V14.01,2013-03-25 00:48:00,
2013-03-24 20:53:00,33.5,28.6,29.65,NE,45,4.9,6.3,82,0.00,,OVC,0.51,VWS V14.01,2013-03-25 00:53:00,
2013-03-24 20:58:00,33.5,28.6,29.65,NE,42,6.9,6.9,82,0.00,,OVC,0.51,VWS V14.01,2013-03-25 00:58:00,
2013-03-24 21:03:00,33.3,28.5,29.65,NE,42,6.9,6.9,82,0.00,,OVC,0.51,VWS V14.01,2013-03-25 01:03:00,
2013-03-24 21:08:00,33.3,28.5,29.65,NE,42,6.9,6.9,82,0.00,,OVC,0.51,VWS V14.01,2013-03-25 01:08:00,
2013-03-24 21:13:00,33.3,28.7,29.65,NE,42,6.9,6.9,83,0.00,,OVC,0.51,VWS V14.01,2013-03-25 01:13:00,
2013-03-24 21:18:00,33.2,28.6,29.65,NE,42,6.9,6.9,83,0.00,,OVC,0.51,VWS V14.01,2013-03-25 01:18:00,
2013-03-24 21:23:00,33.0,28.4,29.65,NE,42,6.9,6.9,83,0.00,,OVC,0.51,VWS V14.01,2013-03-25 01:23:00,
2013-03-24 21:28:00,33.0,28.7,29.65,NE,42,6.9,6.9,84,0.00,,OVC,0.51,VWS V14.01,2013-03-25 01:28:00,
2013-03-24 21:33:00,33.0,28.7,29.65,ENE,62,4.9,4.9,84,0.00,,OVC,0.51,VWS V14.01,2013-03-25 01:33:00,
2013-03-24 21:38:00,33.0,28.7,29.65,ENE,71,4.9,4.9,84,0.00,,OVC,0.51,VWS V14.01,2013-03-25 01:38:00,
2013-03-24 21:43:00,32.8,28.5,29.65,ENE,71,4.9,4.9,84,0.00,,OVC,0.51,VWS V14.01,2013-03-25 01:43:00,
2013-03-24 21:48:00,32.8,28.5,29.65,ENE,71,4.9,4.9,84,0.00,,OVC,0.51,VWS V14.01,2013-03-25 01:48:00,
2013-03-24 21:53:00,32.8,28.8,29.65,ENE,71,4.9,4.9,85,0.00,,OVC,0.51,VWS V14.01,2013-03-25 01:53:00,
2013-03-24 21:58:00,32.8,28.8,29.65,ENE,71,4.9,4.9,85,0.00,,OVC,0.51,VWS V14.01,2013-03-25 01:58:00,
2013-03-24 22:03:00,32.8,28.8,29.65,ENE,71,4.9,4.9,85,0.00,,OVC,0.51,VWS V14.01,2013-03-25 02:03:00,
2013-03-24 22:08:00,32.8,28.8,29.65,ENE,71,4.9,4.9,85,0.00,,OVC,0.51,VWS V14.01,2013-03-25 02:08:00,
2013-03-24 22:13:00,32.8,28.8,29.65,ENE,71,4.9,4.9,85,0.00,,OVC,0.51,VWS V14.01,2013-03-25 02:13:00,
2013-03-24 22:18:00,32.8,28.8,29.65,ENE,71,4.9,4.9,85,0.00,,OVC,0.51,VWS V14.01,2013-03-25 02:18:00,
2013-03-24 22:23:00,32.6,28.6,29.65,ENE,71,4.9,4.9,85,0.00,,OVC,0.51,VWS V14.01,2013-03-25 02:23:00,
2013-03-24 22:28:00,32.6,28.6,29.62,ENE,71,4.9,4.9,85,0.00,,OVC,0.51,VWS V14.01,2013-03-25 02:28:00,
2013-03-24 22:33:00,32.6,28.9,29.62,ENE,71,4.9,4.9,86,0.00,,OVC,0.51,VWS V14.01,2013-03-25 02:33:00,
2013-03-24 22:38:00,32.6,28.9,29.62,ENE,71,4.9,4.9,86,0.00,,OVC,0.51,VWS V14.01,2013-03-25 02:38:00,
2013-03-24 22:43:00,32.4,28.7,29.59,ENE,58,5.4,5.4,86,0.00,,OVC,0.51,VWS V14.01,2013-03-25 02:43:00,
2013-03-24 22:48:00,32.4,28.7,29.59,ENE,61,5.8,5.8,86,0.00,,OVC,0.51,VWS V14.01,2013-03-25 02:48:00,
2013-03-24 22:53:00,32.4,29.0,29.59,NE,39,4.0,4.5,87,0.00,,OVC,0.51,VWS V14.01,2013-03-25 02:53:00,
2013-03-24 22:58:00,32.3,28.8,29.59,ENE,59,4.5,4.5,87,0.00,,OVC,0.51,VWS V14.01,2013-03-25 02:58:00,
2013-03-24 23:03:00,32.3,28.8,29.59,NE,38,3.6,3.6,87,0.00,,OVC,0.51,VWS V14.01,2013-03-25 03:03:00,
2013-03-24 23:08:00,32.3,28.8,29.59,NE,36,4.0,4.0,87,0.00,,OVC,0.51,VWS V14.01,2013-03-25 03:08:00,
2013-03-24 23:13:00,32.3,29.1,29.59,NE,42,0.0,0.0,88,0.00,,OVC,0.51,VWS V14.01,2013-03-25 03:13:00,
2013-03-24 23:18:00,32.3,29.1,29.59,NE,42,0.0,4.0,88,0.00,,OVC,0.51,VWS V14.01,2013-03-25 03:18:00,
2013-03-24 23:23:00,32.4,29.3,29.59,ESE,114,0.0,0.0,88,0.00,,OVC,0.51,VWS V14.01,2013-03-25 03:23:00,
2013-03-24 23:28:00,32.6,29.5,29.62,ESE,114,0.0,0.0,88,0.00,,OVC,0.51,VWS V14.01,2013-03-25 03:28:00,
2013-03-24 23:33:00,32.6,29.5,29.62,ENE,62,0.0,0.0,88,0.00,,OVC,0.51,VWS V14.01,2013-03-25 03:33:00,
2013-03-24 23:38:00,32.6,29.5,29.62,East,100,3.1,3.1,88,0.00,,OVC,0.51,VWS V14.01,2013-03-25 03:38:00,
2013-03-24 23:43:00,32.6,29.5,29.59,NE,46,4.9,4.9,88,0.00,,OVC,0.51,VWS V14.01,2013-03-25 03:43:00,
2013-03-24 23:48:00,32.6,29.5,29.59,NE,46,4.9,4.9,88,0.00,,OVC,0.51,VWS V14.01,2013-03-25 03:48:00,
2013-03-24 23:53:00,32.6,29.5,29.59,ENE,68,5.4,5.4,88,0.00,,OVC,0.51,VWS V14.01,2013-03-25 03:53:00,
2013-03-24 23:58:00,32.6,29.5,29.59,ENE,68,5.4,5.4,88,0.00,,OVC,0.51,VWS V14.01,2013-03-25 03:58:00,